{"data":{"norad_id":65150,"intl_designator":"2025-171U","name":"KUIPER-00112","alt_names":[],"object_type":"PAYLOAD","status":"ACTIVE","operator":null,"country":"US","launch_date":"2025-08-11","launch_site_code":"AFETR","launch_vehicle":null,"mission":null,"orbit_class":"UNKNOWN","rcs_meters":null,"size_class":null,"mass_kg":null,"dimensions":null,"purposes":[],"wikipedia_slug":null,"has_3d_model":false,"image_url":null,"decayed_at":null,"tle_current":{"epoch":"2026-05-25T02:06:03.679776Z","epoch_age_seconds":63539,"freshness":"FRESH","line1":"1 65150U 25171U   26145.08754259  .00001968  00000+0  28578-3 0  9997","line2":"2 65150  51.9003 177.7596 0000663 325.0236  35.0682 14.80129748 44236","mean_motion":14.80129748,"eccentricity":6.63e-5,"inclination_deg":51.9003,"raan_deg":177.7596,"arg_perigee_deg":325.0236,"mean_anomaly_deg":35.0682,"bstar":0.00028578,"rev_number":4423,"period_min":97.288768227635,"perigee_km":628.45004577099,"apogee_km":629.37918081491,"semimajor_km":7007.051613293,"source":"CELESTRAK","updated_at":"2026-05-25T13:38:05.170023Z"}}}